Location: ????????
(60.4333°N, 46.4710°E)
Time: 19:47:44
(UTC+00:00)

Cosmos 1980 Rocket - Pass Details

Date: 25 November 2020
Orbit: 829 x 850 km, 71.0° (Epoch: 16 January)

Event Time Altitude Azimuth Distance (km) Brightness Sun altitude
Rises 17:31:20 0° 314° (NW) 3,385 6.2 -38.5°
Reaches altitude 10° 17:33:52 10° 320° (NW) 2,450 5.2 -38.7°
Enters shadow 17:35:57 22° 329° (NNW) 1,734 4.2 -39.0°
